Weather History for North Las Vegas, NV

Change the Weather History Date:

Tuesday, February 5, 2013

  Actual Average Record
Temperature  
Mean Temperature 54 °F -  
Max Temperature 66 °F 63 °F 78 °F (1953)
Min Temperature 42 °F 39 °F 17 °F (1957)
Degree Days  
Heating Degree Days 11    
Growing Degree Days 4 (Base 50)    
Moisture  
Dew Point 24 °F    
Average Humidity 33    
Maximum Humidity 53    
Minimum Humidity 19    
Precipitation  
Precipitation 0.00 in - - ()
Sea Level Pressure  
Sea Level Pressure 30.00 in    
Wind  
Wind Speed 4 mph (East)    
Max Wind Speed 8 mph    
Max Gust Speed -    
Visibility 10 miles    
Events      
Averages and records for this station are not official NWS values.
T = Trace of Precipitation, MM = Missing Value Source: NWS Daily Summary

Daily Weather History Graph

Daily Weather History Graph

Search for Another Location

Airport:

Trip Planner

Search our weather history database for the weather conditions in past years. The results will help you decide how hot, cold, wet, or windy it might be!

Date:

Astronomy

Feb. 05, 2013 Rise Set
Actual Time 6:38 AM PST 5:11 PM PST
Civil Twilight 6:11 AM PST 5:38 PM PST
Nautical Twilight 5:40 AM PST 6:09 PM PST
Astronomical Twilight 5:10 AM PST 6:39 PM PST
Moon 2:21 AM PST (2/5) 12:37 PM PST (2/5)
Length of Visible Light 11h 27m
Length of Day
10h 33m
Waning Crescent, 25% of the Moon is Illuminated
Feb 5
Waning Crescent
Feb 9
New
Feb 17
First Quarter
Feb 25
Full
Mar 4
Last Quarter

Hourly Weather History & Observations

Time (PST) Temp. Windchill Dew Point Humidity Pressure Visibility Wind Dir Wind Speed Gust Speed Precip Events Conditions
12:53 AM 48.0 °F - 24.1 °F 39% 30.08 in 10.0 mi WNW 5.8 mph - N/A   Clear
1:53 AM 46.0 °F 41.9 °F 26.1 °F 46% 30.07 in 10.0 mi NW 8.1 mph - N/A   Clear
2:53 AM 44.1 °F 40.8 °F 27.0 °F 51% 30.06 in 10.0 mi NW 5.8 mph - N/A   Clear
3:53 AM 42.1 °F 39.2 °F 26.1 °F 53% 30.06 in 10.0 mi SSE 4.6 mph - N/A   Clear
4:53 AM 45.0 °F - 26.1 °F 48% 30.07 in 10.0 mi Calm Calm - N/A   Clear
5:53 AM 42.1 °F 40.2 °F 25.0 °F 51% 30.07 in 10.0 mi North 3.5 mph - N/A   Clear
6:53 AM 42.1 °F 39.2 °F 26.1 °F 53% 30.09 in 10.0 mi WNW 4.6 mph - N/A   Clear
7:53 AM 46.9 °F - 27.0 °F 46% 30.09 in 10.0 mi Calm Calm - N/A   Clear
8:53 AM 53.1 °F - 23.0 °F 31% 30.10 in 10.0 mi Calm Calm - N/A   Clear
9:53 AM 55.9 °F - 23.0 °F 28% 30.09 in 10.0 mi Calm Calm - N/A   Clear
10:53 AM 59.0 °F - 21.9 °F 24% 30.07 in 10.0 mi East 5.8 mph - N/A   Clear
11:53 AM 61.0 °F - 21.0 °F 21% 30.04 in 10.0 mi SE 5.8 mph - N/A   Clear
12:53 PM 63.0 °F - 21.0 °F 20% 30.00 in 10.0 mi SSE 5.8 mph - N/A   Clear
1:53 PM 64.9 °F - 21.9 °F 19% 29.97 in 10.0 mi SE 4.6 mph - N/A   Clear
2:53 PM 66.0 °F - 21.9 °F 19% 29.95 in 10.0 mi SE 4.6 mph - N/A   Clear
3:53 PM 66.0 °F - 21.9 °F 19% 29.93 in 10.0 mi SE 3.5 mph - N/A   Clear
4:53 PM 64.9 °F - 21.9 °F 19% 29.92 in 10.0 mi Calm Calm - N/A   Clear
5:53 PM 59.0 °F - 24.1 °F 26% 29.92 in 10.0 mi East 4.6 mph - N/A   Clear
6:53 PM 59.0 °F - 25.0 °F 27% 29.92 in 10.0 mi East 5.8 mph - N/A   Clear
7:53 PM 60.1 °F - 26.1 °F 27% 29.91 in 10.0 mi Calm Calm - N/A   Clear
8:53 PM 57.9 °F - 26.1 °F 30% 29.91 in 10.0 mi ENE 4.6 mph - N/A   Clear
9:53 PM 57.0 °F - 26.1 °F 30% 29.90 in 10.0 mi ENE 6.9 mph - N/A   Clear
10:53 PM 55.9 °F - 27.0 °F 33% 29.89 in 10.0 mi NE 3.5 mph - N/A   Clear
11:53 PM 55.0 °F - 28.0 °F 35% 29.88 in 10.0 mi Calm Calm - N/A   Clear